TimeCDT,TemperatureF,Dew PointF,Humidity,Sea Level PressureIn,VisibilityMPH,Wind Direction,Wind SpeedMPH,Gust SpeedMPH,PrecipitationIn,Events,Conditions,WindDirDegrees,DateUTC
12:13 AM,35.6,21.2,56,30.22,10.0,NW,8.1,-,N/A,,Clear,320,2013-05-12 05:13:00
12:33 AM,35.6,21.2,56,30.22,10.0,NW,9.2,-,N/A,,Clear,320,2013-05-12 05:33:00
12:53 AM,37.4,21.2,52,30.23,10.0,NNW,8.1,-,N/A,,Clear,330,2013-05-12 05:53:00
1:13 AM,35.6,21.2,56,30.23,10.0,NNW,6.9,-,N/A,,Clear,340,2013-05-12 06:13:00
1:33 AM,35.6,21.2,56,30.23,10.0,NNW,3.5,-,N/A,,Clear,330,2013-05-12 06:33:00
1:53 AM,33.8,21.2,60,30.23,10.0,NW,3.5,-,N/A,,Clear,320,2013-05-12 06:53:00
2:33 AM,32.0,21.2,64,30.23,10.0,NW,4.6,-,N/A,,Clear,310,2013-05-12 07:33:00
2:53 AM,33.8,21.2,60,30.22,10.0,NW,4.6,-,N/A,,Clear,320,2013-05-12 07:53:00
3:13 AM,33.8,21.2,60,30.22,10.0,NW,5.8,-,N/A,,Clear,310,2013-05-12 08:13:00
3:33 AM,30.2,21.2,69,30.22,10.0,WNW,6.9,-,N/A,,Clear,300,2013-05-12 08:33:00
3:53 AM,30.2,24.8,80,30.22,10.0,WNW,6.9,-,N/A,,Clear,300,2013-05-12 08:53:00
4:14 AM,30.2,23.0,75,30.22,10.0,WNW,6.9,-,N/A,,Clear,300,2013-05-12 09:14:00
4:33 AM,30.2,21.2,69,30.22,10.0,WNW,6.9,-,N/A,,Clear,300,2013-05-12 09:33:00
4:53 AM,30.2,21.2,69,30.22,10.0,WNW,8.1,-,N/A,,Clear,300,2013-05-12 09:53:00
5:14 AM,30.2,23.0,75,30.22,10.0,WNW,8.1,-,N/A,,Clear,300,2013-05-12 10:14:00
5:33 AM,28.4,23.0,80,30.22,10.0,WNW,8.1,-,N/A,,Clear,300,2013-05-12 10:33:00
5:53 AM,28.4,23.0,80,30.23,10.0,WNW,8.1,-,N/A,,Clear,300,2013-05-12 10:53:00
6:14 AM,28.4,23.0,80,30.22,10.0,NW,8.1,-,N/A,,Clear,310,2013-05-12 11:14:00
6:33 AM,30.2,23.0,75,30.23,10.0,NW,6.9,-,N/A,,Clear,310,2013-05-12 11:33:00
6:53 AM,32.0,24.8,75,30.23,10.0,NW,6.9,-,N/A,,Clear,310,2013-05-12 11:53:00
7:14 AM,35.6,26.6,70,30.23,10.0,NW,6.9,-,N/A,,Clear,310,2013-05-12 12:14:00
7:33 AM,37.4,26.6,65,30.24,10.0,NW,6.9,-,N/A,,Clear,320,2013-05-12 12:33:00
7:53 AM,39.2,26.6,61,30.24,10.0,NW,6.9,-,N/A,,Clear,320,2013-05-12 12:53:00
8:14 AM,39.2,21.2,49,30.24,10.0,NNW,6.9,-,N/A,,Clear,330,2013-05-12 13:14:00
8:33 AM,42.8,19.4,39,30.24,10.0,NW,8.1,-,N/A,,Clear,310,2013-05-12 13:33:00
8:53 AM,42.8,17.6,36,30.24,10.0,WNW,11.5,17.3,N/A,,Clear,300,2013-05-12 13:53:00
9:13 AM,42.8,17.6,36,30.24,10.0,NW,10.4,-,N/A,,Clear,320,2013-05-12 14:13:00
9:33 AM,44.6,17.6,34,30.24,10.0,NW,10.4,-,N/A,,Clear,310,2013-05-12 14:33:00
9:53 AM,44.6,17.6,34,30.24,10.0,WNW,11.5,16.1,N/A,,Clear,300,2013-05-12 14:53:00
10:13 AM,46.4,17.6,32,30.23,10.0,NW,10.4,-,N/A,,Clear,310,2013-05-12 15:13:00
10:33 AM,46.4,17.6,32,30.23,10.0,NNW,11.5,17.3,N/A,,Clear,330,2013-05-12 15:33:00
10:53 AM,48.2,17.6,30,30.23,10.0,WNW,11.5,-,N/A,,Clear,290,2013-05-12 15:53:00
11:13 AM,48.2,19.4,32,30.23,10.0,NNW,11.5,17.3,N/A,,Clear,340,2013-05-12 16:13:00
11:33 AM,50.0,19.4,30,30.22,10.0,WNW,17.3,21.9,N/A,,Clear,290,2013-05-12 16:33:00
11:54 AM,51.8,19.4,28,30.22,10.0,WNW,16.1,21.9,N/A,,Clear,290,2013-05-12 16:54:00
12:13 PM,51.8,19.4,28,30.21,10.0,NNW,12.7,20.7,N/A,,Clear,330,2013-05-12 17:13:00
12:33 PM,53.6,19.4,26,30.21,10.0,NW,16.1,21.9,N/A,,Clear,320,2013-05-12 17:33:00
12:53 PM,53.6,19.4,26,30.20,10.0,WNW,15.0,21.9,N/A,,Clear,300,2013-05-12 17:53:00
1:13 PM,53.6,19.4,26,30.19,10.0,NNW,8.1,21.9,N/A,,Clear,330,2013-05-12 18:13:00
1:33 PM,53.6,19.4,26,30.18,10.0,NW,18.4,24.2,N/A,,Clear,310,2013-05-12 18:33:00
1:54 PM,55.4,17.6,23,30.18,10.0,NNW,9.2,19.6,N/A,,Clear,330,2013-05-12 18:54:00
2:13 PM,55.4,17.6,23,30.17,10.0,North,10.4,18.4,N/A,,Clear,350,2013-05-12 19:13:00
2:33 PM,55.4,17.6,23,30.17,10.0,NW,12.7,19.6,N/A,,Clear,310,2013-05-12 19:33:00
2:53 PM,55.4,19.4,25,30.16,10.0,NW,13.8,18.4,N/A,,Clear,320,2013-05-12 19:53:00
3:13 PM,57.2,17.6,21,30.16,10.0,WNW,12.7,19.6,N/A,,Clear,290,2013-05-12 20:13:00
3:33 PM,57.2,17.6,21,30.15,10.0,NNW,18.4,21.9,N/A,,Clear,340,2013-05-12 20:33:00
3:53 PM,57.2,17.6,21,30.15,10.0,NW,6.9,21.9,N/A,,Clear,310,2013-05-12 20:53:00
4:13 PM,57.2,17.6,21,30.14,10.0,NNW,10.4,23.0,N/A,,Clear,330,2013-05-12 21:13:00
4:33 PM,57.2,17.6,21,30.13,10.0,NW,10.4,19.6,N/A,,Clear,310,2013-05-12 21:33:00
4:53 PM,57.2,17.6,21,30.13,10.0,WNW,10.4,19.6,N/A,,Clear,300,2013-05-12 21:53:00
5:13 PM,57.2,17.6,21,30.12,10.0,NNW,6.9,17.3,N/A,,Clear,330,2013-05-12 22:13:00
5:34 PM,57.2,17.6,21,30.12,10.0,NW,11.5,17.3,N/A,,Clear,310,2013-05-12 22:34:00
5:53 PM,57.2,17.6,21,30.12,10.0,NW,12.7,17.3,N/A,,Clear,320,2013-05-12 22:53:00
6:13 PM,57.2,17.6,21,30.12,10.0,NNW,10.4,17.3,N/A,,Clear,340,2013-05-12 23:13:00
6:34 PM,57.2,17.6,21,30.11,10.0,NW,8.1,-,N/A,,Clear,310,2013-05-12 23:34:00
6:53 PM,55.4,17.6,23,30.11,10.0,NW,6.9,-,N/A,,Clear,320,2013-05-12 23:53:00
7:13 PM,55.4,17.6,23,30.10,10.0,NNW,8.1,-,N/A,,Clear,340,2013-05-13 00:13:00
7:33 PM,55.4,17.6,23,30.10,10.0,NW,6.9,-,N/A,,Clear,320,2013-05-13 00:33:00
7:53 PM,55.4,17.6,23,30.10,10.0,North,9.2,-,N/A,,Clear,350,2013-05-13 00:53:00
8:13 PM,53.6,19.4,26,30.10,10.0,North,4.6,-,N/A,,Clear,360,2013-05-13 01:13:00
8:34 PM,51.8,19.4,28,30.10,10.0,NNE,5.8,-,N/A,,Clear,30,2013-05-13 01:34:00
8:53 PM,48.2,23.0,37,30.10,10.0,NE,4.6,-,N/A,,Clear,40,2013-05-13 01:53:00
9:13 PM,48.2,21.2,34,30.10,10.0,NE,4.6,-,N/A,,Clear,50,2013-05-13 02:13:00
9:34 PM,46.4,21.2,37,30.10,10.0,ENE,5.8,-,N/A,,Clear,60,2013-05-13 02:34:00
9:53 PM,46.4,21.2,37,30.10,10.0,East,5.8,-,N/A,,Clear,80,2013-05-13 02:53:00
10:13 PM,42.8,23.0,46,30.10,10.0,East,5.8,-,N/A,,Clear,80,2013-05-13 03:13:00
10:33 PM,42.8,24.8,49,30.10,10.0,ESE,4.6,-,N/A,,Clear,110,2013-05-13 03:33:00
10:53 PM,44.6,26.6,49,30.10,10.0,ESE,5.8,-,N/A,,Clear,110,2013-05-13 03:53:00
11:13 PM,44.6,23.0,43,30.09,10.0,East,5.8,-,N/A,,Clear,100,2013-05-13 04:13:00
11:33 PM,42.8,24.8,49,30.08,10.0,ESE,5.8,-,N/A,,Clear,120,2013-05-13 04:33:00
11:53 PM,42.8,24.8,49,30.08,10.0,SE,5.8,-,N/A,,Clear,130,2013-05-13 04:53:00